Other Public Products
Issued by NWS Charleston, SC

Current Version | Previous Version | Text Only | Print | Product List | Glossary Off
Versions: 1 2 3 4 5 6 7 8 9 10 11 12 13 14 15 16 17 18 19 20 21 22 23 24 25 26 27 28 29 30 31 32 33 34 35 36 37 38 39 40 41 42 43 44 45 46 47 48 49 50

325
FPUS82 KCHS 200612
OPUCHS

TEST...KCHS/KSAV Gateway Observations...TEST
National Weather Service Charleston SC
200 AM EDT FRI APR 20 2018

NOTE: "fair" indicates few or no clouds below 12,000 feet with no
significant weather and/or obstructions to visibility.

SCZ050-WAZ558-NCZ071-TXZ119-213-PAZ071-DCZ001-FLZ074-172-MI076-
NYZ176-178-MAZ016-IL014-TNZ027-NJZ106-GAZ044-MD014-200700-

...Gateway Observations for Charleston International...

CITY           SKY/WX    TMP DP  RH WIND       PRES   REMARKS
Chas Airport   FAIR      56  35  45 N13G21    30.15R
6HR MIN TEMP:  56; 6HR MAX TEMP:  78;

Seattle        PTCLDY    51  36  56 N10       30.26S
6HR MIN TEMP:  50; 6HR MAX TEMP:  62;

Charlotte      FAIR      44  28  53 NE9       30.26R
6HR MIN TEMP:  44; 6HR MAX TEMP:  55;

Dallas DFW     PTCLDY    55  36  48 E5        30.25S
6HR MIN TEMP:  53; 6HR MAX TEMP:  67;

Dallas Love    PTCLDY    56  39  53 E7        30.26S
6HR MIN TEMP:  56; 6HR MAX TEMP:  69;

Philladelphia  FAIR      40  22  48 NW17      30.11R WCI  31
6HR MIN TEMP:  40; 6HR MAX TEMP:  45;

Wash National  FAIR      43  22  43 NW10      30.19R
6HR MIN TEMP:  43; 6HR MAX TEMP:  47;

Baltimore      FAIR      39  21  48 NW10      30.17R WCI  32
6HR MIN TEMP:  37; 6HR MAX TEMP:  44;

Miami          FAIR      72  66  81 SW5       30.08S
6HR MIN TEMP:  72; 6HR MAX TEMP:  77;

Detroit        FAIR      35  26  69 W5        30.36R WCI  31
6HR MIN TEMP:  34; 6HR MAX TEMP:  51;

Newark         FAIR      37  24  59 W12       30.04S WCI  29
6HR MIN TEMP:  37; 6HR MAX TEMP:  44;

Laguardia      FAIR      39  23  52 NW20      30.02S WCI  29
6HR MIN TEMP:  39; 6HR MAX TEMP:  45;

J F K          FAIR      38  23  55 NW23G31   30.03S WCI  27
6HR MIN TEMP:  38; 6HR MAX TEMP:  44;

Boston Logan   CLOUDY    39  28  64 NW18      29.85R WCI  30
6HR MIN TEMP:  39; 6HR MAX TEMP:  44;

Ft. Lauderdale FAIR      73  67  81 SW5       30.06S
6HR MIN TEMP:  73; 6HR MAX TEMP:  77;

Chicago O`Hare FAIR      39  23  52 W5        30.43S WCI  36
6HR MIN TEMP:  38; 6HR MAX TEMP:  49;

Chicago Midway FAIR      39  24  55 CALM      30.44S
6HR MIN TEMP:  38; 6HR MAX TEMP:  50;

Houston Bush   MOCLDY    58  46  64 NE3       30.23R
6HR MIN TEMP:  56; 6HR MAX TEMP:  73;

Houston Hobby  MOCLDY    61  45  55 NE5       30.21S
6HR MIN TEMP:  60; 6HR MAX TEMP:  73;

Nashville      FAIR      41  32  70 N6        30.35S
6HR MIN TEMP:  41; 6HR MAX TEMP:  49;

Atlanta        FAIR      49  33  54 N10       30.18S
6HR MIN TEMP:  49; 6HR MAX TEMP:  56;


$$

GAZ044-118-TXZ119-213-NCZ071-DCZ001-MDZ014-506-PAZ021-071-NJZ106-
NYZ176-178-MAZ106-OHZ011-021-055-MIZ076-KYZ091-ILZ014-INZ047-
MNZ060-ONZ431-200700-

...Gateway Observations for Savannah International...

CITY           SKY/WX    TMP DP  RH WIND       PRES   REMARKS
Savannah Arpt  FAIR      61  41  47 NE13      30.12R
6HR MIN TEMP:  60; 6HR MAX TEMP:  78;

Atlanta        FAIR      49  33  54 N10       30.18S
6HR MIN TEMP:  49; 6HR MAX TEMP:  56;

Charlotte      FAIR      44  28  53 NE9       30.26R
6HR MIN TEMP:  44; 6HR MAX TEMP:  55;

Dallas DFW     PTCLDY    55  36  48 E5        30.25S
6HR MIN TEMP:  53; 6HR MAX TEMP:  67;

Houston Bush   MOCLDY    58  46  64 NE3       30.23R
6HR MIN TEMP:  56; 6HR MAX TEMP:  73;

Wash National  FAIR      43  22  43 NW10      30.19R
6HR MIN TEMP:  43; 6HR MAX TEMP:  47;

Wash Dulles    FAIR      36  25  64 NW3       30.19R
6HR MIN TEMP:  36; 6HR MAX TEMP:  45;

Baltimore      FAIR      39  21  48 NW10      30.17R WCI  32
6HR MIN TEMP:  37; 6HR MAX TEMP:  44;

Philadelphia   FAIR      40  22  48 NW17      30.11R WCI  31
6HR MIN TEMP:  40; 6HR MAX TEMP:  45;

Newark         FAIR      37  24  59 W12       30.04S WCI  29
6HR MIN TEMP:  37; 6HR MAX TEMP:  44;

Laguardia      FAIR      39  23  52 NW20      30.02S WCI  29
6HR MIN TEMP:  39; 6HR MAX TEMP:  45;

J F K          FAIR      38  23  55 NW23G31   30.03S WCI  27
6HR MIN TEMP:  38; 6HR MAX TEMP:  44;

Boston         CLOUDY    39  28  64 NW18      29.85R WCI  30
6HR MIN TEMP:  39; 6HR MAX TEMP:  44;

Pittsburg      FAIR      31  22  69 NW7       30.27R WCI  24
6HR MIN TEMP:  31; 6HR MAX TEMP:  42;

Akron          FAIR      30  21  69 W3        30.29S
6HR MIN TEMP:  30; 6HR MAX TEMP:  44;

Cleveland      FAIR      30  23  75 SW7       30.34R WCI  23
6HR MIN TEMP:  29; 6HR MAX TEMP:  39;

Cincinnati     FAIR      41  26  55 NW8       30.35R
6HR MIN TEMP:  41; 6HR MAX TEMP:  52;

Columbus       FAIR      39  31  73 N7        30.33R WCI  34
Detroit        FAIR      35  26  69 W5        30.36R WCI  31
6HR MIN TEMP:  34; 6HR MAX TEMP:  51;

Chicago O`Hare FAIR      39  23  52 W5        30.43S WCI  36
6HR MIN TEMP:  38; 6HR MAX TEMP:  49;

Minneapolis    FAIR      38  24  57 CALM      30.46R
6HR MIN TEMP:  38; 6HR MAX TEMP:  50;

Indianapolis   FAIR      36  16  44 N8        30.40R WCI  30
6HR MIN TEMP:  36; 6HR MAX TEMP:  51;

Toronto Canada CLEAR     32  19  59 NW14G20   30.22R WCI  22

$$




USA.gov is the U.S. government's official web portal to all federal, state and local government web resources and services.